Weather History for Bethel, AK

Change the Weather History Date:

Sunday, October 2, 2011

  Actual Average Record
Temperature  
Mean Temperature 37 °F 38 °F  
Max Temperature 47 °F 44 °F 65 °F (1954)
Min Temperature 27 °F 32 °F 20 °F (1970)
Degree Days  
Heating Degree Days 28 27  
Month to date heating degree days 58 54  
Since 1 July heating degree days 1436 1280  
Cooling Degree Days 0    
Month to date cooling degree days 0  
Year to date cooling degree days 0  
Moisture  
Dew Point 31 °F    
Average Humidity 0    
Maximum Humidity 0    
Minimum Humidity 0    
Precipitation  
Precipitation T in 0.07 in 0.57 in (1960)
Month to date precipitation T 0.14  
Year to date precipitation 11.33 14.31  
Snow  
Snow 0.00 in 0.00 in 3.20 in (1951)
Month to date snowfall 0.0 0.1  
Since 1 July snowfall 0.0 0.7  
Since 1 September snowfall 0.0 0.7  
Snow Depth 0.00 in    
Sea Level Pressure  
Sea Level Pressure 29.42 in    
Wind  
Wind Speed 5 mph (NE)    
Max Wind Speed 13 mph    
Max Gust Speed 16 mph    
Visibility 10 miles    
Events Rain    
T = Trace of Precipitation, MM = Missing Value Source: NWS Daily Summary

Daily Weather History Graph

Daily Weather History Graph

Search for Another Location

Airport:

Trip Planner

Search our weather history database for the weather conditions in past years. The results will help you decide how hot, cold, wet, or windy it might be!

Date:

Astronomy

Oct. 02, 2011 Rise Set
Actual Time 8:55 AM AKDT 8:16 PM AKDT
Civil Twilight 8:13 AM AKDT 8:58 PM AKDT
Nautical Twilight 7:23 AM AKDT 9:48 PM AKDT
Astronomical Twilight 6:30 AM AKDT 10:40 PM AKDT
Moon 4:58 PM AKDT (10/2) 10:44 PM AKDT (10/2)
Length of Visible Light 12h 44m
Length of Day
11h 20m
Waxing Crescent, 36% of the Moon is Illuminated
Oct 2
Waxing Crescent
Oct 3
First Quarter
Oct 11
Full
Oct 19
Last Quarter
Oct 26
New

Hourly Weather History & Observations

Time (AKDT) Temp. Windchill Dew Point Humidity Pressure Visibility Wind Dir Wind Speed Gust Speed Precip Events Conditions
12:53 AM 30.0 °F 22.4 °F 27.0 °F 88% 29.49 in 10.0 mi NNE 8.1 mph - N/A   Clear
1:53 AM 28.9 °F 20.4 °F 26.1 °F 89% 29.47 in 10.0 mi North 9.2 mph - N/A   Clear
2:53 AM 28.0 °F 20.0 °F 25.0 °F 88% 29.47 in 10.0 mi North 8.1 mph - N/A   Clear
3:53 AM 28.0 °F 22.8 °F 25.0 °F 88% 29.46 in 10.0 mi North 4.6 mph - N/A   Mostly Cloudy
4:53 AM 30.0 °F 24.1 °F 27.0 °F 88% 29.44 in 10.0 mi NNE 5.8 mph - N/A   Overcast
5:53 AM 30.0 °F 25.2 °F 27.0 °F 88% 29.44 in 10.0 mi NNE 4.6 mph - N/A   Overcast
6:53 AM 30.0 °F 25.2 °F 27.0 °F 88% 29.43 in 10.0 mi NE 4.6 mph - N/A   Overcast
7:53 AM 30.9 °F 27.5 °F 28.0 °F 89% 29.43 in 10.0 mi ENE 3.5 mph - N/A   Overcast
8:53 AM 30.9 °F 27.5 °F 28.9 °F 92% 29.43 in 10.0 mi NNE 3.5 mph - N/A   Overcast
9:53 AM 32.0 °F 28.7 °F 30.0 °F 92% 29.43 in 10.0 mi ENE 3.5 mph - N/A   Overcast
10:53 AM 34.0 °F 31.0 °F 32.0 °F 92% 29.43 in 10.0 mi ENE 3.5 mph - 0.00 in Rain Light Rain
11:53 AM 37.0 °F 33.3 °F 33.1 °F 86% 29.43 in 10.0 mi East 4.6 mph - 0.00 in   Mostly Cloudy
12:53 PM 41.0 °F 37.1 °F 34.0 °F 76% 29.42 in 10.0 mi East 5.8 mph - N/A   Mostly Cloudy
1:53 PM 45.0 °F 40.1 °F 34.0 °F 65% 29.42 in 10.0 mi ESE 9.2 mph - N/A   Mostly Cloudy
2:53 PM 46.0 °F 41.9 °F 33.1 °F 61% 29.40 in 10.0 mi SSE 8.1 mph - N/A   Mostly Cloudy
3:53 PM 46.0 °F 42.5 °F 33.1 °F 61% 29.40 in 10.0 mi SSE 6.9 mph - N/A   Mostly Cloudy
4:53 PM 45.0 °F 41.2 °F 35.1 °F 68% 29.39 in 10.0 mi ESE 6.9 mph - 0.00 in   Mostly Cloudy
5:53 PM 46.0 °F 43.9 °F 32.0 °F 58% 29.39 in 10.0 mi ESE 4.6 mph - N/A   Overcast
6:53 PM 45.0 °F - 34.0 °F 65% 29.38 in 10.0 mi Calm Calm - 0.00 in   Overcast
7:53 PM 43.0 °F 40.3 °F 35.1 °F 74% 29.37 in 10.0 mi NNE 4.6 mph - N/A   Overcast
8:53 PM 37.0 °F 32.4 °F 33.1 °F 86% 29.37 in 10.0 mi NNE 5.8 mph - N/A   Mostly Cloudy
9:10 PM 37.4 °F 33.8 °F 33.8 °F 87% 29.37 in 10.0 mi NNE 4.6 mph - N/A   Overcast
9:53 PM 37.0 °F 31.0 °F 33.1 °F 86% 29.37 in 9.0 mi NE 8.1 mph - N/A   Overcast
11:53 PM 35.1 °F 30.1 °F 32.0 °F 89% 29.37 in 10.0 mi NE 5.8 mph - N/A   Mostly Cloudy